Location: Baggettsville
(36.4767°N, 86.7303°W)
Time: 14:47:32
(UTC+00:00)

N. Korean satellite - Pass Details

Date: 21 September 2021
Orbit: 450 x 495 km, 97.3° (Epoch: 19 October)

Event Time Altitude Azimuth Distance (km) Brightness Sun altitude
Rises 10:08:12 0° 32° (NNE) 2,517 10.9 -17.9°
Reaches altitude 10° 10:10:53 10° 55° (NE) 1,645 10.3 -17.4°
Maximum altitude 10:13:08 16° 94° (E) 1,324 9.8 -17.0°
Drops below altitude 10° 10:15:23 10° 134° (SE) 1,653 9.7 -16.5°
Sets 10:18:04 0° 157° (SSE) 2,537 10.4 -16.0°
